| time (UTC) | temp F | wind direction | speed knots | gust knots | rain 1hr in | rain 24hr in | rain mn in | humidity % | barometer mb |
| 20260505152517 | 74 | 190 | 3.5 | 8.7 | 0.00 | 0.00 | 0.00 | 46 | 1011.9 |
| 20260505152038 | 74 | 185 | 3.5 | 7.8 | 0.00 | 0.00 | 0.00 | 47 | 1011.9 |
| 20260505151629 | 75 | 219 | 2.6 | 7.8 | 0.00 | 0.00 | 0.00 | 47 | 1012.1 |
| 20260505151034 | 75 | 225 | 2.6 | 7.8 | 0.00 | 0.00 | 0.00 | 48 | 1012.0 |
| 20260505150522 | 74 | 217 | 1.7 | 7.0 | 0.00 | 0.00 | 0.00 | 47 | 1011.9 |
| 20260505150157 | 74 | 132 | 2.6 | 8.7 | 0.00 | 0.00 | 0.00 | 48 | 1012.0 |
| 20260505140534 | 73 | 198 | 3.5 | 8.7 | 0.00 | 0.00 | 0.00 | 50 | 1012.2 |
| 20260505140209 | 72 | 173 | 4.3 | 8.7 | 0.00 | 0.00 | 0.00 | 48 | 1012.2 |
| 20260505130206 | 69 | 193 | 2.6 | 6.1 | 0.00 | 0.00 | 0.00 | 54 | 1012.0 |
| 20260505125017 | 67 | 177 | 2.6 | 6.1 | 0.00 | 0.00 | 0.00 | 56 | 1012.1 |
| 20260505124703 | 66 | 238 | 2.6 | 6.1 | 0.00 | 0.00 | 0.00 | 58 | 1012.0 |
| 20260505124040 | 66 | 205 | 2.6 | 5.2 | 0.00 | 0.00 | 0.00 | 58 | 1012.2 |
| 20260505123546 | 66 | 240 | 2.6 | 6.1 | 0.00 | 0.00 | 0.00 | 58 | 1012.2 |
| 20260505123143 | 66 | 139 | 2.6 | 6.1 | 0.00 | 0.00 | 0.00 | 59 | 1012.1 |
| 20260505122524 | 66 | 186 | 1.7 | 6.1 | 0.00 | 0.00 | 0.00 | 59 | 1012.2 |
| 20260505122034 | 65 | 134 | 1.7 | 6.1 | 0.00 | 0.00 | 0.00 | 60 | 1012.2 |
| 20260505121706 | 65 | 213 | 2.6 | 6.1 | 0.00 | 0.00 | 0.00 | 61 | 1012.2 |
| 20260505121035 | 65 | 243 | 2.6 | 4.3 | 0.00 | 0.00 | 0.00 | 62 | 1012.1 |
| 20260505120534 | 64 | 220 | 1.7 | 4.3 | 0.00 | 0.00 | 0.00 | 61 | 1012.0 |
| 20260505120221 | 64 | 216 | 1.7 | 4.3 | 0.00 | 0.00 | 0.00 | 63 | 1011.8 |
| 20260505115525 | 64 | 213 | 1.7 | 3.5 | 0.00 | 0.00 | 0.00 | 63 | 1011.8 |
| 20260505115022 | 64 | 201 | 1.7 | 3.5 | 0.00 | 0.00 | 0.00 | 63 | 1011.8 |
| 20260505114630 | 63 | 219 | 1.7 | 4.3 | 0.00 | 0.00 | 0.00 | 65 | 1011.7 |
| 20260505114030 | 62 | 246 | 0.9 | 2.6 | 0.00 | 0.00 | 0.00 | 68 | 1011.7 |
| 20260505113525 | 61 | 229 | 0.0 | 2.6 | 0.00 | 0.00 | 0.00 | 69 | 1011.6 |
| 20260505113132 | 60 | 259 | 1.7 | 2.6 | 0.00 | 0.00 | 0.00 | 71 | 1011.4 |
| 20260505112529 | 60 | 209 | 0.9 | 3.5 | 0.00 | 0.00 | 0.00 | 71 | 1011.5 |
| 20260505112030 | 59 | 155 | 0.9 | 3.5 | 0.00 | 0.00 | 0.00 | 73 | 1011.5 |
| 20260505111641 | 58 | 248 | 0.9 | 2.6 | 0.00 | 0.00 | 0.00 | 76 | 1011.3 |
| 20260505111041 | 58 | 202 | 0.9 | 2.6 | 0.00 | 0.00 | 0.00 | 76 | 1011.3 |
| 20260505110523 | 57 | 277 | 0.9 | 2.6 | 0.00 | 0.00 | 0.00 | 77 | 1011.1 |
| 20260505110141 | 57 | 205 | 0.9 | 3.5 | 0.00 | 0.00 | 0.00 | 76 | 1010.9 |
| 20260505102025 | 60 | 224 | 0.9 | 2.6 | 0.00 | 0.00 | 0.00 | 70 | 1011.2 |
| 20260505101636 | 60 | 204 | 0.9 | 2.6 | 0.00 | 0.00 | 0.00 | 70 | 1011.0 |
| 20260505101020 | 60 | 259 | 0.9 | 2.6 | 0.00 | 0.00 | 0.00 | 69 | 1010.9 |
| 20260505100541 | 61 | 252 | 0.9 | 2.6 | 0.00 | 0.00 | 0.00 | 67 | 1010.9 |
| 20260505100151 | 62 | 201 | 0.9 | 2.6 | 0.00 | 0.00 | 0.00 | 65 | 1010.7 |
| 20260505095548 | 62 | 201 | 0.9 | 3.5 | 0.00 | 0.00 | 0.00 | 64 | 1010.9 |
| 20260505095018 | 63 | 180 | 1.7 | 4.3 | 0.00 | 0.00 | 0.00 | 62 | 1010.7 |
| 20260505094630 | 64 | 209 | 1.7 | 4.3 | 0.00 | 0.00 | 0.00 | 61 | 1010.7 |
| 20260505094047 | 64 | 233 | 1.7 | 4.3 | 0.00 | 0.00 | 0.00 | 61 | 1010.6 |
| 20260505093538 | 64 | 166 | 0.9 | 5.2 | 0.00 | 0.00 | 0.00 | 60 | 1010.5 |
| 20260505093128 | 65 | 211 | 1.7 | 5.2 | 0.00 | 0.00 | 0.00 | 59 | 1010.6 |
| 20260505092538 | 64 | 223 | 2.6 | 3.5 | 0.00 | 0.00 | 0.00 | 61 | 1010.3 |
| 20260505092018 | 64 | 167 | 1.7 | 4.3 | 0.00 | 0.00 | 0.00 | 60 | 1010.3 |
| 20260505091631 | 65 | 214 | 2.6 | 4.3 | 0.00 | 0.00 | 0.00 | 60 | 1010.2 |
| 20260505091036 | 65 | 163 | 1.7 | 7.8 | 0.00 | 0.00 | 0.00 | 59 | 1010.1 |
| 20260505090519 | 65 | 210 | 1.7 | 7.8 | 0.00 | 0.00 | 0.00 | 59 | 1010.0 |
| 20260505090145 | 65 | 217 | 2.6 | 7.8 | 0.00 | 0.00 | 0.00 | 60 | 1010.0 |
| 20260505085537 | 65 | 202 | 3.5 | 7.8 | 0.00 | 0.00 | 0.00 | 60 | 1010.1 |
| 20260505085024 | 65 | 234 | 2.6 | 5.2 | 0.00 | 0.00 | 0.00 | 59 | 1010.1 |
| 20260505084632 | 65 | 171 | 1.7 | 5.2 | 0.00 | 0.00 | 0.00 | 59 | 1010.1 |
| 20260505084037 | 66 | 171 | 2.6 | 7.0 | 0.00 | 0.00 | 0.00 | 58 | 1009.9 |
| 20260505083544 | 65 | 240 | 3.5 | 7.0 | 0.00 | 0.00 | 0.00 | 59 | 1009.9 |
| 20260505083132 | 65 | 201 | 2.6 | 5.2 | 0.00 | 0.00 | 0.00 | 59 | 1009.8 |
| 20260505082534 | 66 | 232 | 2.6 | 6.1 | 0.00 | 0.00 | 0.00 | 58 | 1009.9 |
| 20260505082041 | 66 | 184 | 2.6 | 6.1 | 0.00 | 0.00 | 0.00 | 59 | 1009.9 |
| 20260505081634 | 66 | 184 | 2.6 | 8.7 | 0.00 | 0.00 | 0.00 | 59 | 1009.9 |
| 20260505081019 | 66 | 230 | 1.7 | 7.0 | 0.00 | 0.00 | 0.00 | 59 | 1010.1 |
| 20260505080533 | 66 | 219 | 2.6 | 7.0 | 0.00 | 0.00 | 0.00 | 59 | 1010.1 |
| 20260505080123 | 66 | 186 | 2.6 | 7.8 | 0.00 | 0.00 | 0.00 | 59 | 1010.0 |
| 20260505075535 | 66 | 188 | 2.6 | 7.8 | 0.00 | 0.00 | 0.00 | 59 | 1009.9 |
| 20260505075033 | 65 | 242 | 1.7 | 7.0 | 0.00 | 0.00 | 0.00 | 60 | 1009.9 |
| 20260505074633 | 66 | 212 | 1.7 | 8.7 | 0.00 | 0.00 | 0.00 | 60 | 1010.0 |
| 20260505074027 | 65 | 239 | 1.7 | 7.0 | 0.00 | 0.00 | 0.00 | 60 | 1009.9 |
| 20260505073541 | 65 | 254 | 3.5 | 6.1 | 0.00 | 0.00 | 0.00 | 61 | 1009.8 |
| 20260505073122 | 65 | 215 | 1.7 | 7.8 | 0.00 | 0.00 | 0.00 | 61 | 1009.8 |
| 20260505072531 | 65 | 191 | 1.7 | 7.8 | 0.00 | 0.00 | 0.00 | 61 | 1009.7 |
| 20260505072048 | 65 | 271 | 3.5 | 7.8 | 0.00 | 0.00 | 0.00 | 61 | 1009.8 |
| 20260505071607 | 65 | 213 | 1.7 | 6.1 | 0.00 | 0.00 | 0.00 | 61 | 1009.9 |
| 20260505071044 | 65 | 187 | 3.5 | 7.0 | 0.00 | 0.00 | 0.00 | 61 | 1010.0 |
| 20260505070541 | 65 | 220 | 2.6 | 7.0 | 0.00 | 0.00 | 0.00 | 62 | 1010.0 |
| 20260505070134 | 64 | 209 | 1.7 | 5.2 | 0.00 | 0.00 | 0.00 | 65 | 1009.9 |
| 20260505065529 | 63 | 227 | 0.9 | 4.3 | 0.00 | 0.00 | 0.00 | 66 | 1009.8 |
| 20260505065028 | 64 | 254 | 1.7 | 4.3 | 0.00 | 0.00 | 0.00 | 64 | 1009.9 |
| 20260505064703 | 65 | 207 | 0.9 | 5.2 | 0.00 | 0.00 | 0.00 | 63 | 1009.8 |
| 20260505064042 | 65 | 240 | 2.6 | 5.2 | 0.00 | 0.00 | 0.00 | 63 | 1009.8 |
| 20260505063528 | 64 | 268 | 1.7 | 4.3 | 0.00 | 0.00 | 0.00 | 63 | 1010.0 |
| 20260505063119 | 64 | 210 | 2.6 | 4.3 | 0.00 | 0.00 | 0.00 | 64 | 1010.0 |
| 20260505062544 | 64 | 197 | 1.7 | 4.3 | 0.00 | 0.00 | 0.00 | 65 | 1010.0 |
| 20260505062031 | 63 | 178 | 2.6 | 5.2 | 0.00 | 0.00 | 0.00 | 66 | 1010.1 |
| 20260505061625 | 63 | 215 | 1.7 | 4.3 | 0.00 | 0.00 | 0.00 | 68 | 1010.0 |
| 20260505061043 | 62 | 256 | 1.7 | 4.3 | 0.00 | 0.00 | 0.00 | 69 | 1009.9 |
| 20260505060537 | 61 | 235 | 1.7 | 3.5 | 0.00 | 0.00 | 0.00 | 71 | 1010.2 |
| 20260505060127 | 61 | 163 | 1.7 | 4.3 | 0.00 | 0.00 | 0.00 | 72 | 1010.0 |
| 20260505055528 | 60 | 202 | 0.9 | 3.5 | 0.00 | 0.00 | 0.00 | 75 | 1010.1 |
| 20260505055034 | 59 | 178 | 1.7 | 3.5 | 0.00 | 0.00 | 0.00 | 76 | 1010.2 |
| 20260505054601 | 59 | 233 | 0.9 | 3.5 | 0.00 | 0.00 | 0.00 | 77 | 1010.2 |
| 20260505054021 | 58 | 193 | 1.7 | 3.5 | 0.00 | 0.00 | 0.00 | 82 | 1010.3 |
| 20260505053525 | 56 | 163 | 0.9 | 3.5 | 0.00 | 0.00 | 0.00 | 85 | 1010.1 |
| 20260505053136 | 55 | 169 | 0.9 | 4.3 | 0.00 | 0.00 | 0.00 | 86 | 1010.1 |
| 20260505052529 | 55 | 165 | 0.0 | 4.3 | 0.00 | 0.00 | 0.00 | 86 | 1010.0 |
| 20260505052026 | 55 | 150 | 0.9 | 2.6 | 0.00 | 0.00 | 0.00 | 86 | 1009.9 |
| 20260505051632 | 55 | 186 | 0.0 | 2.6 | 0.00 | 0.00 | 0.00 | 86 | 1009.9 |
| 20260505051036 | 54 | 202 | 0.0 | 1.7 | 0.00 | 0.00 | 0.00 | 87 | 1010.3 |
| 20260505050524 | 54 | 213 | 0.0 | 1.7 | 0.00 | 0.00 | 0.00 | 87 | 1010.0 |
| 20260505050150 | 54 | 176 | 0.0 | 1.7 | 0.00 | 0.00 | 0.00 | 87 | 1010.0 |
| 20260505041634 | 54 | 279 | 0.0 | 1.7 | 0.00 | 0.00 | 0.00 | 87 | 1009.4 |
| 20260505041049 | 55 | 249 | 0.0 | 1.7 | 0.00 | 0.00 | 0.00 | 87 | 1009.6 |
| 20260505040519 | 55 | 217 | 0.0 | 1.7 | 0.00 | 0.00 | 0.00 | 87 | 1009.3 |
| 20260505040112 | 55 | 279 | 0.0 | 1.7 | 0.00 | 0.00 | 0.00 | 87 | 1009.2 |
| 20260505035540 | 55 | 265 | 0.0 | 1.7 | 0.00 | 0.00 | 0.00 | 86 | 1009.2 |
| 20260505035029 | 55 | 265 | 0.0 | 1.7 | 0.00 | 0.00 | 0.00 | 86 | 1009.2 |
| 20260505034638 | 55 | 265 | 0.0 | 1.7 | 0.00 | 0.00 | 0.00 | 86 | 1009.3 |
| 20260505034030 | 55 | 265 | 0.0 | 1.7 | 0.00 | 0.00 | 0.00 | 86 | 1009.1 |
| 20260505033530 | 56 | 265 | 0.0 | 1.7 | 0.00 | 0.00 | 0.00 | 86 | 1009.2 |
| 20260505033148 | 56 | 265 | 0.0 | 1.7 | 0.00 | 0.00 | 0.00 | 86 | 1009.1 |
| 20260505032541 | 56 | 257 | 0.0 | 1.7 | 0.00 | 0.00 | 0.00 | 85 | 1009.1 |
| 20260505032047 | 56 | 239 | 0.0 | 1.7 | 0.00 | 0.00 | 0.00 | 85 | 1009.0 |
| 20260505031648 | 56 | 285 | 0.0 | 1.7 | 0.00 | 0.00 | 0.00 | 85 | 1009.1 |
| 20260505031016 | 56 | 270 | 0.9 | 1.7 | 0.00 | 0.00 | 0.00 | 85 | 1009.0 |
| 20260505030520 | 56 | 206 | 0.0 | 1.7 | 0.00 | 0.00 | 0.00 | 85 | 1009.1 |
| 20260505030155 | 57 | 191 | 0.0 | 1.7 | 0.00 | 0.00 | 0.00 | 84 | 1009.0 |
| 20260505025528 | 57 | 244 | 0.0 | 1.7 | 0.00 | 0.00 | 0.00 | 84 | 1009.1 |
| 20260505025038 | 57 | 188 | 0.0 | 1.7 | 0.00 | 0.00 | 0.00 | 84 | 1009.1 |
| 20260505024629 | 57 | 188 | 0.0 | 1.7 | 0.00 | 0.00 | 0.00 | 83 | 1009.0 |
| 20260505024029 | 58 | 225 | 0.0 | 0.9 | 0.00 | 0.00 | 0.00 | 82 | 1009.0 |
| 20260505023536 | 58 | 184 | 0.0 | 0.9 | 0.00 | 0.00 | 0.00 | 82 | 1009.1 |
| 20260505023109 | 58 | 184 | 0.0 | 1.7 | 0.00 | 0.00 | 0.00 | 81 | 1009.0 |
| 20260505022525 | 59 | 238 | 0.0 | 1.7 | 0.00 | 0.00 | 0.00 | 81 | 1009.0 |
| 20260505022034 | 59 | 238 | 0.0 | 0.9 | 0.00 | 0.00 | 0.00 | 81 | 1008.9 |
| 20260505021656 | 59 | 227 | 0.0 | 1.7 | 0.00 | 0.00 | 0.00 | 81 | 1009.0 |
| 20260505021041 | 59 | 227 | 0.0 | 1.7 | 0.00 | 0.00 | 0.00 | 80 | 1009.0 |
| 20260505020519 | 59 | 277 | 0.9 | 1.7 | 0.00 | 0.00 | 0.00 | 80 | 1008.8 |
| 20260505020140 | 60 | 227 | 0.0 | 1.7 | 0.00 | 0.00 | 0.00 | 79 | 1008.8 |
| 20260505015522 | 60 | 227 | 0.0 | 1.7 | 0.00 | 0.00 | 0.00 | 79 | 1008.9 |
| 20260505015025 | 60 | 227 | 0.0 | 1.7 | 0.00 | 0.00 | 0.00 | 78 | 1008.8 |
| 20260505014609 | 61 | 221 | 0.0 | 1.7 | 0.00 | 0.00 | 0.00 | 78 | 1008.7 |
| 20260505014040 | 61 | 209 | 0.0 | 1.7 | 0.00 | 0.00 | 0.00 | 77 | 1008.9 |
| 20260505013525 | 61 | 209 | 0.0 | 0.9 | 0.00 | 0.00 | 0.00 | 77 | 1008.7 |
| 20260505013122 | 61 | 175 | 0.0 | 0.9 | 0.00 | 0.00 | 0.00 | 76 | 1008.6 |
| 20260505012522 | 62 | 175 | 0.0 | 0.9 | 0.00 | 0.00 | 0.00 | 76 | 1008.6 |
| 20260505012028 | 62 | 175 | 0.0 | 0.9 | 0.00 | 0.00 | 0.00 | 75 | 1008.7 |
| 20260505011648 | 62 | 175 | 0.0 | 0.9 | 0.00 | 0.00 | 0.00 | 75 | 1008.7 |
| 20260505011033 | 62 | 175 | 0.0 | 2.6 | 0.00 | 0.00 | 0.00 | 75 | 1008.7 |
| 20260505010537 | 63 | 209 | 0.0 | 1.7 | 0.00 | 0.00 | 0.00 | 74 | 1008.6 |
| 20260505010203 | 63 | 206 | 0.0 | 1.7 | 0.00 | 0.00 | 0.00 | 74 | 1008.7 |
| 20260505005529 | 64 | 198 | 0.0 | 0.9 | 0.00 | 0.00 | 0.00 | 72 | 1008.7 |
| 20260505005015 | 65 | 198 | 0.0 | 0.9 | 0.00 | 0.00 | 0.00 | 71 | 1008.8 |
| 20260505004644 | 65 | 198 | 0.0 | 0.9 | 0.00 | 0.00 | 0.00 | 70 | 1008.6 |
| 20260505004036 | 66 | 198 | 0.0 | 0.9 | 0.00 | 0.00 | 0.00 | 69 | 1008.5 |
| 20260505003541 | 67 | 198 | 0.0 | 0.9 | 0.00 | 0.00 | 0.00 | 66 | 1008.6 |
| 20260505003154 | 68 | 284 | 0.0 | 1.7 | 0.00 | 0.00 | 0.00 | 63 | 1008.4 |
| 20260505002547 | 68 | 171 | 0.0 | 0.9 | 0.00 | 0.00 | 0.00 | 62 | 1008.4 |
| 20260505002017 | 69 | 171 | 0.0 | 1.7 | 0.00 | 0.00 | 0.00 | 60 | 1008.5 |
| 20260505001600 | 70 | 171 | 0.9 | 1.7 | 0.00 | 0.00 | 0.00 | 59 | 1008.3 |
| 20260505001047 | 71 | 191 | 0.0 | 1.7 | 0.00 | 0.00 | 0.00 | 57 | 1008.3 |
| 20260505000526 | 72 | 219 | 0.0 | 3.5 | 0.00 | 0.00 | 0.00 | 54 | 1008.5 |
| 20260505000152 | 73 | 155 | 0.9 | 3.5 | 0.00 | 0.00 | 0.00 | 52 | 1008.5 |
| 20260504235525 | 75 | 198 | 1.7 | 3.5 | 0.00 | 0.00 | 0.00 | 46 | 1008.4 |
| 20260504235032 | 75 | 190 | 1.7 | 5.2 | 0.00 | 0.00 | 0.00 | 45 | 1008.4 |
| 20260504234637 | 75 | 137 | 1.7 | 5.2 | 0.00 | 0.00 | 0.00 | 45 | 1008.4 |
| 20260504234023 | 75 | 212 | 0.9 | 7.0 | 0.00 | 0.00 | 0.00 | 45 | 1008.5 |
| 20260504233530 | 76 | 229 | 1.7 | 9.6 | 0.00 | 0.00 | 0.00 | 45 | 1008.6 |
| 20260504233110 | 76 | 189 | 3.5 | 9.6 | 0.00 | 0.00 | 0.00 | 44 | 1008.5 |
| 20260504232532 | 76 | 229 | 1.7 | 7.8 | 0.00 | 0.00 | 0.00 | 44 | 1008.4 |
| 20260504232027 | 76 | 209 | 4.3 | 7.8 | 0.00 | 0.00 | 0.00 | 43 | 1008.4 |
| 20260504231627 | 77 | 182 | 3.5 | 7.0 | 0.00 | 0.00 | 0.00 | 44 | 1008.5 |
| 20260504231023 | 77 | 105 | 0.9 | 4.3 | 0.00 | 0.00 | 0.00 | 44 | 1008.5 |
| 20260504230531 | 77 | 205 | 1.7 | 7.0 | 0.00 | 0.00 | 0.00 | 44 | 1008.3 |
| 20260504230214 | 77 | 209 | 2.6 | 7.0 | 0.00 | 0.00 | 0.00 | 43 | 1008.4 |
| 20260504225529 | 77 | 123 | 2.6 | 7.0 | 0.00 | 0.00 | 0.00 | 43 | 1008.3 |
| 20260504225022 | 78 | 199 | 3.5 | 8.7 | 0.00 | 0.00 | 0.00 | 43 | 1008.5 |
| 20260504224622 | 78 | 192 | 3.5 | 9.6 | 0.00 | 0.00 | 0.00 | 43 | 1008.5 |
| 20260504224022 | 78 | 178 | 4.3 | 8.7 | 0.00 | 0.00 | 0.00 | 43 | 1008.5 |
| 20260504223531 | 77 | 226 | 1.7 | 4.3 | 0.00 | 0.00 | 0.00 | 44 | 1008.5 |
| 20260504223135 | 77 | 206 | 1.7 | 7.0 | 0.00 | 0.00 | 0.00 | 44 | 1008.6 |
| 20260504222518 | 77 | 304 | 1.7 | 7.0 | 0.00 | 0.00 | 0.00 | 44 | 1008.6 |
| 20260504222039 | 77 | 288 | 2.6 | 7.0 | 0.00 | 0.00 | 0.00 | 43 | 1008.6 |
| 20260504221647 | 78 | 213 | 4.3 | 9.6 | 0.00 | 0.00 | 0.00 | 42 | 1008.6 |
| 20260504221029 | 78 | 164 | 4.3 | 9.6 | 0.00 | 0.00 | 0.00 | 43 | 1008.7 |
| 20260504220530 | 78 | 213 | 2.6 | 6.1 | 0.00 | 0.00 | 0.00 | 44 | 1008.8 |
| 20260504220147 | 77 | 178 | 2.6 | 5.2 | 0.00 | 0.00 | 0.00 | 45 | 1008.9 |
| 20260504215531 | 77 | 205 | 2.6 | 5.2 | 0.00 | 0.00 | 0.00 | 44 | 1008.9 |
| 20260504215019 | 78 | 259 | 0.9 | 6.1 | 0.00 | 0.00 | 0.00 | 44 | 1009.0 |
| 20260504214630 | 78 | 182 | 1.7 | 7.8 | 0.00 | 0.00 | 0.00 | 43 | 1008.8 |
| 20260504214041 | 78 | 306 | 4.3 | 7.8 | 0.00 | 0.00 | 0.00 | 43 | 1008.8 |
| 20260504213529 | 78 | 190 | 1.7 | 7.8 | 0.00 | 0.00 | 0.00 | 43 | 1008.9 |
| 20260504213150 | 78 | 325 | 2.6 | 7.8 | 0.00 | 0.00 | 0.00 | 45 | 1009.0 |
| 20260504212518 | 77 | 197 | 2.6 | 7.0 | 0.00 | 0.00 | 0.00 | 46 | 1008.9 |
| 20260504212024 | 77 | 225 | 1.7 | 7.0 | 0.00 | 0.00 | 0.00 | 45 | 1009.0 |
| 20260504211709 | 79 | 221 | 3.5 | 7.0 | 0.00 | 0.00 | 0.00 | 44 | 1009.2 |
| 20260504211037 | 79 | 214 | 3.5 | 6.1 | 0.00 | 0.00 | 0.00 | 45 | 1009.1 |
| 20260504210544 | 79 | 185 | 2.6 | 6.1 | 0.00 | 0.00 | 0.00 | 45 | 1009.1 |
| 20260504210208 | 78 | 191 | 2.6 | 7.0 | 0.00 | 0.00 | 0.00 | 45 | 1009.2 |
| 20260504205521 | 77 | 219 | 3.5 | 7.8 | 0.00 | 0.00 | 0.00 | 48 | 1009.5 |
| 20260504205034 | 77 | 307 | 3.5 | 10.4 | 0.00 | 0.00 | 0.00 | 47 | 1009.2 |
| 20260504204639 | 78 | 262 | 5.2 | 10.4 | 0.00 | 0.00 | 0.00 | 45 | 1009.4 |
| 20260504204024 | 78 | 212 | 3.5 | 8.7 | 0.00 | 0.00 | 0.00 | 46 | 1009.5 |
| 20260504203524 | 77 | 209 | 4.3 | 11.3 | 0.00 | 0.00 | 0.00 | 47 | 1009.5 |
| 20260504203205 | 76 | 284 | 5.2 | 11.3 | 0.00 | 0.00 | 0.00 | 47 | 1009.6 |
| 20260504202541 | 77 | 205 | 2.6 | 10.4 | 0.00 | 0.00 | 0.00 | 47 | 1009.5 |
| 20260504202027 | 76 | 279 | 3.5 | 10.4 | 0.00 | 0.00 | 0.00 | 48 | 1009.5 |
| 20260504201646 | 76 | 219 | 2.6 | 8.7 | 0.00 | 0.00 | 0.00 | 47 | 1009.7 |
| 20260504201040 | 76 | 227 | 4.3 | 10.4 | 0.00 | 0.00 | 0.00 | 47 | 1009.7 |
| 20260504200536 | 75 | 195 | 3.5 | 10.4 | 0.00 | 0.00 | 0.00 | 49 | 1009.8 |
| 20260504200204 | 75 | 222 | 2.6 | 8.7 | 0.00 | 0.00 | 0.00 | 49 | 1009.8 |
| 20260504195534 | 74 | 187 | 3.5 | 11.3 | 0.00 | 0.00 | 0.00 | 49 | 1010.0 |
| 20260504195025 | 75 | 311 | 4.3 | 11.3 | 0.00 | 0.00 | 0.00 | 48 | 1010.0 |
| 20260504194707 | 75 | 163 | 4.3 | 9.6 | 0.00 | 0.00 | 0.00 | 46 | 1010.1 |
| 20260504194040 | 75 | 169 | 4.3 | 8.7 | 0.00 | 0.00 | 0.00 | 48 | 1010.4 |
| 20260504193531 | 74 | 229 | 3.5 | 8.7 | 0.00 | 0.00 | 0.00 | 49 | 1010.3 |
| 20260504193152 | 75 | 254 | 4.3 | 12.2 | 0.00 | 0.00 | 0.00 | 48 | 1010.3 |
| 20260504192529 | 74 | 192 | 3.5 | 12.2 | 0.00 | 0.00 | 0.00 | 49 | 1010.4 |
| 20260504192033 | 73 | 184 | 3.5 | 11.3 | 0.00 | 0.00 | 0.00 | 50 | 1010.4 |
| 20260504191648 | 73 | 158 | 3.5 | 11.3 | 0.00 | 0.00 | 0.00 | 50 | 1010.4 |
| 20260504191024 | 72 | 267 | 2.6 | 13.0 | 0.00 | 0.00 | 0.00 | 53 | 1010.5 |
| 20260504190524 | 72 | 217 | 6.1 | 13.0 | 0.00 | 0.00 | 0.00 | 51 | 1010.6 |
| 20260504190209 | 72 | 185 | 3.5 | 7.8 | 0.00 | 0.00 | 0.00 | 55 | 1010.7 |
| 20260504185523 | 70 | 248 | 2.6 | 7.0 | 0.00 | 0.00 | 0.00 | 61 | 1010.8 |
| 20260504185038 | 69 | 178 | 1.7 | 7.0 | 0.00 | 0.00 | 0.00 | 64 | 1010.9 |
| 20260504184700 | 67 | 268 | 0.9 | 7.8 | 0.00 | 0.00 | 0.00 | 75 | 1011.0 |
| 20260504184029 | 64 | 135 | 2.6 | 7.8 | 0.00 | 0.00 | 0.00 | 70 | 1011.0 |
| 20260504183533 | 65 | 236 | 4.3 | 7.0 | 0.00 | 0.00 | 0.00 | 68 | 1011.4 |
| 20260504183138 | 66 | 240 | 1.7 | 7.0 | 0.00 | 0.00 | 0.00 | 63 | 1011.6 |
| 20260504182533 | 68 | 161 | 2.6 | 7.0 | 0.00 | 0.00 | 0.00 | 59 | 1012.2 |
| 20260504182045 | 69 | 235 | 1.7 | 8.7 | 0.00 | 0.00 | 0.00 | 54 | 1012.6 |
| 20260504181648 | 69 | 217 | 3.5 | 6.1 | 0.00 | 0.00 | 0.00 | 53 | 1012.2 |
| 20260504181029 | 70 | 261 | 2.6 | 8.7 | 0.00 | 0.00 | 0.00 | 52 | 1011.7 |
| 20260504180525 | 71 | 106 | 3.5 | 8.7 | 0.00 | 0.00 | 0.00 | 49 | 1011.5 |
| 20260504180204 | 72 | 261 | 3.5 | 13.0 | 0.00 | 0.00 | 0.00 | 48 | 1011.4 |
| 20260504175546 | 73 | 225 | 5.2 | 13.0 | 0.00 | 0.00 | 0.00 | 46 | 1011.3 |
| 20260504175039 | 75 | 209 | 6.1 | 11.3 | 0.00 | 0.00 | 0.00 | 45 | 1011.3 |
| 20260504174650 | 75 | 302 | 3.5 | 9.6 | 0.00 | 0.00 | 0.00 | 46 | 1011.0 |
| 20260504174043 | 74 | 225 | 2.6 | 12.2 | 0.00 | 0.00 | 0.00 | 46 | 1011.2 |
| 20260504173521 | 73 | 164 | 2.6 | 13.9 | 0.00 | 0.00 | 0.00 | 47 | 1010.8 |
| 20260504173142 | 74 | 219 | 4.3 | 13.9 | 0.00 | 0.00 | 0.00 | 48 | 1011.4 |
| 20260504172534 | 73 | 174 | 2.6 | 10.4 | 0.00 | 0.00 | 0.00 | 49 | 1011.2 |
| 20260504172047 | 73 | 275 | 3.5 | 8.7 | 0.00 | 0.00 | 0.00 | 48 | 1011.0 |
| 20260504171648 | 71 | 193 | 2.6 | 8.7 | 0.00 | 0.00 | 0.00 | 53 | 1011.0 |
| 20260504171021 | 70 | 228 | 3.5 | 8.7 | 0.00 | 0.00 | 0.00 | 52 | 1011.2 |
| 20260504170542 | 68 | 261 | 3.5 | 7.8 | 0.00 | 0.00 | 0.00 | 54 | 1011.3 |
| 20260504170156 | 69 | 237 | 3.5 | 7.8 | 0.00 | 0.00 | 0.00 | 52 | 1011.4 |
| 20260504160135 | 69 | 180 | 2.6 | 7.8 | 0.00 | 0.00 | 0.00 | 57 | 1012.0 |